Regional Weather Roundup
Issued by NWS

Current Version | Previous Version | Text Only | Print | Product List | Glossary On
Versions: 1 2 3 4 5 6 7 8 9 10 11 12 13 14 15 16 17 18 19 20 21 22 23 24 25 26 27 28 29 30 31 32 33 34 35 36 37 38 39 40 41 42 43 44 45 46 47 48 49 50
000
ASUS45 KCYS 270910
RWRWY

WYOMING REGIONAL WEATHER ROUNDUP
NATIONAL WEATHER SERVICE CHEYENNE WY
300 AM MDT MON MAR 27 2017

NOTE:  "FAIR" INDICATES FEW OR NO CLOUDS BELOW 12,000 FEET
WITH NO SIGNIFICANT WEATHER AND/OR OBSTRUCTIONS TO VISIBILITY.

WYZ001-271000-
YELLOWSTONE NATIONAL PARK

CITY           SKY/WX    TMP DP  RH WIND       PRES   REMARKS
LK YELLOWSTONE   N/A     27  27 100 CALM      29.90F
W YELLOWSTONE  NOT AVBL

$$
WYZ002>013-054>058-071-098>099-271000-
NORTHERN WYOMING

CITY           SKY/WX    TMP DP  RH WIND       PRES   REMARKS
JACKSON        CLOUDY    32  32 100 SW9       29.92F WCI  24
CODY           CLOUDY    44  21  40 W9        29.84S
GREYBULL       FAIR      45  31  58 S7        29.81R
WORLAND        CLOUDY    41  38  89 CALM      29.82R
SHERIDAN       CLOUDY    41  35  79 NW8       29.81S
BUFFALO        FAIR      40  31  70 S6        29.83F
GILLETTE       FAIR      38  34  85 S12       29.84F WCI  30
HULETT         FAIR      32  28  86 CALM      29.88S
NEWCASTLE      FOG       34  34 100 S13       29.91S VSB 3/4 WCI  25

$$
WYZ014>020-022>026-101>103-271000-
CENTRAL WYOMING

CITY           SKY/WX    TMP DP  RH WIND       PRES   REMARKS
BIG PINEY      CLOUDY    29  26  89 NE3       29.96S
PINEDALE       CLOUDY    28  25  86 NW3       29.97S
DUBOIS         PTSUNNY   32  21  64 N13G18    29.88S WCI  22
LANDER         FAIR      39  21  48 CALM      29.86R
RIVERTON       FAIR      37  23  56 NW14      29.86S WCI  28
CASPER         FAIR      37  29  72 SW7       29.86F WCI  32
DOUGLAS        FAIR      35  32  88 CALM      29.89F

$$
WYZ021-027>030-104>119-271000-
SOUTHERN WYOMING

CITY           SKY/WX    TMP DP  RH WIND       PRES   REMARKS
EVANSTON       CLOUDY    34  23  64 SW5       29.94F WCI  30
KEMMERER         N/A     32  27  80 CALM      29.96S
ROCK SPRINGS   CLOUDY    37  26  64 SW6       29.95F WCI  32
DIXON            N/A     34  28  80 CALM      30.00S
RAWLINS        CLOUDY    36  23  59 W13       29.94F WCI  27
SARATOGA       PTSUNNY   32  25  74 W9        29.97S WCI  24
LARAMIE        FAIR      28  26  92 S8        29.93F WCI  20
CHEYENNE       FAIR      32  30  92 W7        29.93F WCI  26
TORRINGTON     FAIR      27  25  92 SE6       29.91F WCI  20
PINE BLUFFS    FAIR      27  27 100 W6        29.95S WCI  20

$$



USA.gov is the U.S. government's official web portal to all federal, state and local government web resources and services.